{"data":{"norad_id":63041,"intl_designator":"2025-034N","name":"STARLINK-32820","alt_names":[],"object_type":"PAYLOAD","status":"ACTIVE","operator":null,"country":"US","launch_date":"2025-02-18","launch_site_code":"AFETR","launch_vehicle":null,"mission":null,"orbit_class":"UNKNOWN","rcs_meters":null,"size_class":null,"mass_kg":null,"dimensions":null,"purposes":["comms"],"wikipedia_slug":null,"has_3d_model":false,"image_url":null,"decayed_at":null,"tle_current":{"epoch":"2026-05-25T00:38:44.084832Z","epoch_age_seconds":68899,"freshness":"FRESH","line1":"1 63041U 25034N   26145.02689913  .00019275  00000+0  66093-3 0  9994","line2":"2 63041  53.1584 263.5951 0001152  70.9840 289.1285 15.30214692 70779","mean_motion":15.30214692,"eccentricity":0.0001152,"inclination_deg":53.1584,"raan_deg":263.5951,"arg_perigee_deg":70.984,"mean_anomaly_deg":289.1285,"bstar":0.00066093,"rev_number":7077,"period_min":94.104442175883,"perigee_km":474.38170100168,"apogee_km":475.96070321145,"semimajor_km":6853.3082021066,"source":"CELESTRAK","updated_at":"2026-05-25T13:38:19.867842Z"}}}